DW8873 Weather Reports


time (UTC)temp
C
wind
direction
speed
KPH
gust
KPH
rain 1hr
cm
rain 24hr
cm
rain mn
cm
humidity
%
barometer
mb
20260505084134 18 127 0.0 3.2 0.00 0.00 0.00 63 1018.7
20260505083133 18 127 0.0 1.6 0.00 0.00 0.00 59 1018.7
20260505082131 18 127 0.0 3.2 0.00 0.00 0.00 55 1018.3
20260505081129 19 127 1.6 4.8 0.00 0.00 0.00 53 1018.3
20260505080128 19 127 3.2 6.4 0.00 0.00 0.00 52 1018.0
20260505075126 19 119 3.2 8.0 0.00 0.00 0.00 52 1018.0
20260505074125 19 114 1.6 9.7 0.00 0.00 0.00 53 1017.7
20260505073123 20 112 3.2 4.8 0.00 0.00 0.00 54 1017.7
20260505072122 20 120 1.6 6.4 0.00 0.00 0.00 53 1017.3
20260505071121 20 119 3.2 8.0 0.00 0.00 0.00 53 1017.3
20260505070119 20 143 1.6 12.9 0.00 0.00 0.00 52 1017.0
20260505065117 21 126 1.6 12.9 0.00 0.00 0.00 52 1017.0
20260505064045 21 135 3.2 9.7 0.00 0.00 0.00 52 1016.7
20260505063043 21 181 4.8 6.4 0.00 0.00 0.00 49 1016.3
20260505062041 22 208 1.6 3.2 0.00 0.00 0.00 45 1016.3
20260505061040 22 207 1.6 3.2 0.00 0.00 0.00 45 1016.3
20260505060038 22 204 1.6 4.8 0.00 0.00 0.00 43 1016.3
20260505055036 22 203 1.6 6.4 0.00 0.00 0.00 43 1016.3
20260505054004 22 260 0.0 6.4 0.00 0.00 0.00 43 1016.3
20260505052931 22 185 3.2 6.4 0.00 0.00 0.00 42 1016.3
20260505051929 22 291 1.6 6.4 0.00 0.03 0.00 44 1016.3
20260505050826 23 267 3.2 6.4 0.00 0.03 0.00 43 1016.4
20260505040815 24 285 3.2 6.4 0.00 0.05 0.00 43 1016.0
20260505035814 24 247 0.0 8.0 0.00 0.05 0.00 44 1016.0
20260505034742 23 231 3.2 8.0 0.00 0.05 0.00 43 1016.0
20260505033740 23 251 3.2 6.4 0.00 0.05 0.00 43 1016.0
20260505032739 23 193 1.6 9.7 0.00 0.05 0.00 45 1016.4
20260505031738 23 267 3.2 11.3 0.00 0.08 0.00 45 1016.4
20260505030736 23 331 1.6 11.3 0.00 0.08 0.00 45 1016.4
20260505025735 23 306 1.6 8.0 0.00 0.08 0.00 45 1016.4
20260505024734 23 257 3.2 9.7 0.00 0.10 0.00 46 1016.7
20260505023732 22 253 3.2 9.7 0.00 0.10 0.00 47 1016.7
20260505022730 22 264 3.2 12.9 0.00 0.13 0.00 47 1016.7
20260505021729 22 266 3.2 14.5 0.00 0.13 0.00 48 1016.7
20260505020656 21 248 3.2 14.5 0.00 0.15 0.00 49 1016.7
20260505015654 21 166 3.2 12.9 0.00 0.15 0.00 50 1016.7
20260505014653 21 285 4.8 12.9 0.00 0.15 0.00 49 1017.0
20260505013620 21 276 3.2 11.3 0.00 0.15 0.00 51 1017.4
20260505012619 21 245 3.2 14.5 0.00 0.15 0.00 51 1017.4
20260505011617 21 267 4.8 14.5 0.00 0.15 0.00 52 1017.4
20260505010615 20 286 3.2 12.9 0.00 0.15 0.00 54 1017.7
20260505005614 20 257 4.8 17.7 0.00 0.15 0.00 55 1017.7
20260505004613 20 263 3.2 17.7 0.00 0.15 0.00 57 1018.0
20260505003611 20 324 0.0 12.9 0.00 0.15 0.00 56 1018.0
20260505002609 20 263 6.4 12.9 0.00 0.15 0.00 55 1018.0
20260505001608 20 297 12.9 12.9 0.00 0.15 0.00 57 1018.0
20260505000535 20 280 0.0 0.0 0.00 0.15 0.00 58 1018.0
20260504235534 19 205 0.0 0.0 0.00 0.15 0.00 58 1018.0
20260504234532 19 268 0.0 0.0 0.00 0.15 0.00 59 1018.4
20260504233531 20 325 0.0 0.0 0.00 0.15 0.00 58 1018.4
20260504232530 20 212 0.0 0.0 0.00 0.15 0.00 60 1018.7
20260504231528 20 262 0.0 0.0 0.00 0.15 0.00 61 1018.4
20260504230526 19 31 0.0 0.0 0.00 0.15 0.00 61 1018.4
20260504225453 18 237 0.0 0.0 0.00 0.15 0.00 62 1018.4
20260504224452 18 303 0.0 0.0 0.00 0.15 0.00 61 1018.0
20260504223450 18 265 0.0 0.0 0.00 0.15 0.00 64 1018.0
20260504222449 19 262 0.0 0.0 0.00 0.15 0.00 66 1018.4
20260504221344 18 180 0.0 0.0 0.00 0.15 0.00 70 1018.4
20260504220312 17 180 0.0 0.0 0.00 0.15 0.00 75 1018.4
20260504215311 16 180 0.0 0.0 0.00 0.15 0.00 80 1018.0
20260504214309 16 180 0.0 0.0 0.00 0.15 0.00 84 1017.7
20260504213308 15 180 0.0 0.0 0.00 0.15 0.00 90 1017.3
20260504212306 14 220 0.0 0.0 0.00 0.15 0.00 91 1017.7
20260504211305 13 220 0.0 0.0 0.00 0.15 0.00 92 1017.3
20260504210303 13 220 0.0 0.0 0.00 0.15 0.00 92 1017.3
20260504205303 13 220 0.0 0.0 0.00 0.15 0.00 91 1017.0
20260504204229 13 220 0.0 0.0 0.00 0.15 0.00 90 1017.0
20260504203228 13 220 0.0 0.0 0.00 0.15 0.00 90 1017.0
20260504202226 13 220 0.0 0.0 0.00 0.15 0.00 89 1016.6
20260504201224 13 220 0.0 0.0 0.00 0.15 0.00 90 1016.6
20260504200223 13 220 0.0 0.0 0.00 0.15 0.00 90 1016.6
20260504195150 13 214 0.0 0.0 0.00 0.15 0.00 90 1016.3
20260504194117 13 214 0.0 0.0 0.00 0.15 0.00 89 1016.3
20260504193116 13 214 0.0 0.0 0.00 0.15 0.00 89 1016.0
20260504192114 14 214 0.0 0.0 0.00 0.15 0.00 89 1016.3
20260504191042 14 214 0.0 0.0 0.00 0.15 0.00 89 1016.0
20260504190009 14 214 0.0 0.0 0.00 0.15 0.00 88 1016.0
20260504184936 14 214 0.0 0.0 0.00 0.15 0.00 88 1016.0
20260504183935 15 214 0.0 0.0 0.00 0.15 0.00 87 1015.6
20260504182933 15 214 0.0 0.0 0.00 0.15 0.00 86 1015.6
20260504181931 15 214 0.0 0.0 0.00 0.15 0.00 85 1015.3
20260504180930 15 214 0.0 0.0 0.00 0.15 0.00 85 1015.3
20260504175928 15 214 0.0 0.0 0.00 0.15 0.00 85 1015.3
20260504174927 15 214 0.0 0.0 0.00 0.15 0.15 85 1015.3
20260504173925 15 214 0.0 0.0 0.00 0.15 0.15 84 1015.3
20260504172923 16 214 0.0 0.0 0.00 0.15 0.15 83 1015.3
20260504171921 16 214 0.0 0.0 0.00 0.15 0.15 82 1015.7
20260504170919 16 214 0.0 0.0 0.00 0.15 0.15 82 1015.7
20260504150728 17 185 0.0 0.0 0.00 0.15 0.15 87 1015.7
20260504140648 17 261 0.0 0.0 0.00 0.15 0.15 88 1015.3
20260504130607 18 175 0.0 0.0 0.00 0.15 0.15 84 1015.3
20260504110548 20 333 4.8 14.5 0.00 0.15 0.15 78 1014.7
20260504100436 20 354 8.0 16.1 0.00 0.15 0.15 77 1014.0